[[{"header":{"parameterUnit":"m.s-1","parameterCategory":1,"la1":30.2991,"la2":30.254,"lo1":-89.0895,"lo2":-89.0444,"dy":0.0017,"dx":0.0017,"nx":28,"ny":28,"refTime":"2026-01-11T03:00:00:Z","depth":0,"parameterNumber":2,"parameterNumberName":"U-component_of_WINDS"},"data":[0,0,0,0,0,0,0,0,0,0,0,0,0,0,0,0,0,0,0,0,0,0,0,0,0,0,0,0,0,0,0,0,0,0,0,0,0,0,0,0,0,0,0,0,0,0,0,0,0,0,0,0,0,0,0,0,0,0,-3.0071,-3.0072,0,-3.0206,-3.0208,-3.0209,-3.0132,-3.0128,-3.0124,-3.0121,-3.0262,-3.027,-3.0277,0,0,0,0,0,0,0,0,0,0,0,0,0,-2.9747,-2.9753,-3.0071,-3.0072,-3.0074,-3.0206,-3.0208,-3.021,-3.0133,-3.0128,-3.0123,-3.0119,-3.026,-3.0269,-3.0277,0,0,0,0,0,0,0,0,0,0,0,0,0,-2.9886,-2.9755,-3.007,-3.0051,-3.0051,-3.0206,-3.0208,-3.021,-3.0134,-3.0128,-3.0122,-3.0117,-3.0257,-3.0268,-3.0279,-3.046,0,0,-3.0312,-3.0317,0,0,0,0,0,0,0,0,-2.9878,-2.9898,-3.0053,-3.0053,-3.0053,-3.0146,-3.0145,-3.0294,-3.0135,-3.0102,-3.0121,-3.0114,-3.0229,-3.0242,-3.028,-3.0467,-3.0473,-3.0313,-3.032,-3.0325,-3.0328,0,0,0,0,0,0,0,-2.9868,-2.9891,-3.0124,-3.0055,-3.0055,-3.0037,-3.005,-3.0173,-3.0196,-3.0105,-3.0099,-3.0116,-3.0228,-3.0269,-3.0282,-3.0475,-3.0313,-3.0323,-3.0329,-3.0334,-3.0817,-3.0823,0,0,0,0,0,0,-2.986,-2.9884,-3.012,-3.0128,-2.9949,-3.0047,-3.0062,-3.0122,-3.0194,-3.02,-3.0121,-3.0112,-3.0253,-3.027,-3.0287,-3.0504,-3.0324,-3.0335,-3.0341,-3.0811,-3.0819,-3.0826,0,0,0,0,0,0,-2.9853,-2.9882,-3.0115,-3.0005,-3.0033,-3.0059,-3.0127,-3.0128,-3.0169,-3.0207,-3.021,-3.0159,-3.0249,-3.0272,-3.0417,-3.0508,-3.034,-3.035,-3.0804,-3.0814,-3.0822,-3.0941,0,0,0,0,0,0,-2.9844,-2.988,-2.9949,-3.0007,-3.0039,-3.0243,-3.0132,-3.0135,-3.0188,-3.0178,-3.0244,-3.0249,-3.0247,-3.0401,-3.0428,-3.052,-3.0358,-3.0796,-3.0808,-3.0819,-3.0929,-3.0953,-3.0974,0,0,0,0,0,-2.9833,-2.9978,-2.9953,-2.9982,-3.0126,-3.0248,-3.0267,-3.026,-3.0196,-3.0266,-3.0289,-3.0247,-3.0493,-3.0417,-3.0447,-3.0543,-3.079,-3.0805,-3.0818,-3.0919,-3.0948,-3.0973,0,0,0,0,0,0,-2.9931,-2.9985,-2.9958,-3.0126,-3.0183,-3.0235,-3.0323,-3.0292,-3.0369,-3.0357,-3.0346,-3.0361,-3.0513,-3.0542,-3.0456,-3.0722,-3.0632,-3.0653,-3.0698,-3.0726,-3.0748,-3.0739,-3.0367,0,0,0,0,0,-2.9972,-3.0066,-3.0108,-3.0252,-3.0282,-3.0298,-3.0351,-3.034,-3.04,-3.0424,-3.0458,-3.0518,-3.0608,-3.0669,-3.0754,-3.0932,-3.0945,-3.1013,-3.1035,-3.1053,-3.1072,-3.1168,-3.1198,-3.0872,-3.0872,-3.0872,0,0,-3.0059,-3.0099,-3.016,-3.0273,-3.0316,-3.0414,-3.0319,-3.0427,-3.05,-3.044,-3.058,-3.0607,-3.0673,-3.0836,-3.0909,-3.0865,-3.1165,-3.1071,-3.1086,-3.1095,-3.1185,-3.1216,-3.1244,-3.0882,-3.088,-3.0878,0,0,-3.0266,-3.0306,-3.043,-3.0475,-3.054,-3.0549,-3.0579,-3.0636,-3.0651,-3.0791,-3.0748,-3.0834,-3.0991,-3.1039,-3.1085,-3.1308,-3.1272,-3.1336,-3.1454,-3.1547,-3.1573,-3.1596,-3.1676,-3.1705,-3.1354,-3.1354,-3.1355,0,-3.0365,-3.0511,-3.0498,-3.0609,-3.066,-3.0609,-3.0735,-3.0779,-3.087,-3.0907,-3.0855,-3.105,-3.1091,-3.1263,-3.1318,-3.1356,-3.139,-3.133,-3.157,-3.1593,-3.1614,-3.169,-3.1721,-3.1362,-3.1361,-3.136,-3.136,0,-3.063,-3.0731,-3.0823,-3.0911,-3.0972,-3.109,-3.1096,-3.116,-3.1143,-3.1158,-3.13,-3.1347,-3.1441,-3.148,-3.1466,-3.1651,-3.1622,-3.1571,-3.148,-3.1653,-3.1724,-3.1754,-3.1372,-3.137,-3.1368,-3.1366,0,0,-3.0905,-3.0982,-3.1017,-3.1056,-3.1123,-3.1202,-3.1317,-3.1407,-3.1462,-3.1526,-3.1623,-3.1755,-3.1708,-3.1759,-3.1749,-3.1831,-3.2005,-3.177,-3.1771,-3.1813,-3.2212,-3.2251,-3.2285,-3.1981,-3.1986,-3.1991,-3.2207,0,-3.1117,-3.1318,-3.1309,-3.1497,-3.1591,-3.1542,-3.1643,-3.1695,-3.1712,-3.1793,-3.1811,-3.1906,-3.1836,-3.1866,-3.1945,-3.1968,-3.2086,-3.1952,-3.2072,-3.2076,-3.2058,-3.2323,-3.2365,-3.2567,-3.2235,-3.224,-3.2243,0,-3.1393,-3.1464,-3.1661,-3.1714,-3.1753,-3.1843,-3.1924,-3.2003,-3.2061,-3.2067,-3.2124,-3.21,-3.2217,-3.2121,-3.2282,-3.2191,-3.224,-3.2258,-3.2266,-3.2278,-3.2171,-3.2343,-3.2631,-3.2662,-3.2287,-3.2283,-3.228,0,-3.1575,-3.172,-3.1857,-3.1891,-3.1956,-3.202,-3.205,-3.2103,-3.2157,-3.2228,-3.2264,-3.2348,-3.2395,-3.2461,-3.2461,-3.2391,-3.2624,-3.2528,-3.2633,-3.2633,-3.2686,-3.2683,-3.2986,-3.2715,-3.2714,-3.2714,-3.2713,0,-3.1814,-3.1936,-3.1939,-3.2024,-3.2159,-3.2147,-3.2282,-3.2306,-3.2352,-3.2441,-3.2403,-3.2487,-3.2481,-3.2566,-3.2567,-3.27,-3.2721,-3.273,-3.2729,-3.2734,-3.2733,-3.2767,-3.2753,-3.2722,-3.272,-3.2718,-3.2717,0,-3.2041,-3.2048,-3.2194,-3.2242,-3.2257,-3.2355,-3.2396,-3.2476,-3.2488,-3.26,-3.2625,-3.2644,-3.2742,-3.2748,-3.2861,-3.2861,-3.3023,-3.3006,-3.3003,-3.3001,-3.3105,-3.3095,-3.3442,-3.3487,-3.3185,-3.3188,-3.3191,0,-3.2194,-3.2287,-3.2344,-3.24,-3.2434,-3.2524,-3.2579,-3.257,-3.2629,-3.2701,-3.2773,-3.2866,-3.2941,-3.3098,-3.3123,-3.3209,-3.3194,-3.3309,-3.3207,-3.3209,-3.3197,-3.3192,-3.3201,-3.333,-3.3334,-3.3336,-3.3338,0,-3.2464,-3.2463,-3.2543,-3.2624,-3.269,-3.2754,-3.2813,-3.2861,-3.2859,-3.2927,-3.3026,-3.3083,-3.3197,-3.3291,-3.3374,-3.3405,-3.3373,-3.337,-3.3399,-3.3406,-3.3401,-3.3406,-3.3059,-3.3363,-3.336,-3.3358,-3.3357,-3.3356,-3.266,-3.274,-3.2792,-3.2883,-3.2926,-3.2982,-3.3059,-3.3079,-3.3161,-3.3252,-3.3242,-3.3352,-3.3406,-3.3514,-3.3552,-3.3638,-3.3598,-3.364,-3.3651,-3.3662,-3.3673,-3.3386,-3.3653,-3.3652,-3.3651,-3.3651,-3.365,0,-3.2929,-3.296,-3.3043,-3.3126,-3.3197,-3.3157,-3.322,-3.3282,-3.3379,-3.3432,-3.3505,-3.3618,-3.3708,-3.3738,-3.3826,-3.3888,-3.3875,-3.3912,-3.3908,-3.3915,-3.3703,-3.3669,-3.3921,-3.3921,-3.3921,-3.3921,-3.392,-3.392,-3.3077,-3.3211,-3.3215,-3.3369,-3.3399,-3.3505,-3.3544,-3.3595,-3.3638,-3.3765,-3.3839,-3.3857,-3.3901,-3.3991,-3.4072,-3.4078,-3.4113,-3.4156,-3.4157,-3.3958,-3.3931,-3.3905,-3.3873,-3.4163,-3.4164,-3.4362,-3.4364,-3.4365]},{"header":{"parameterUnit":"m.s-1","parameterCategory":1,"la1":30.2991,"la2":30.254,"lo1":-89.0895,"lo2":-89.0444,"dy":0.0017,"dx":0.0017,"nx":28,"ny":28,"refTime":"2026-01-11T03:00:00:Z","depth":0,"parameterNumber":3,"parameterNumberName":"V-component_of_WINDS"},"data":[0,0,0,0,0,0,0,0,0,0,0,0,0,0,0,0,0,0,0,0,0,0,0,0,0,0,0,0,0,0,0,0,0,0,0,0,0,0,0,0,0,0,0,0,0,0,0,0,0,0,0,0,0,0,0,0,0,0,-5.1394,-5.1395,0,-5.1492,-5.1493,-5.1494,-5.1443,-5.144,-5.1437,-5.1435,-5.1531,-5.1536,-5.1541,0,0,0,0,0,0,0,0,0,0,0,0,0,-5.1155,-5.1159,-5.1394,-5.1395,-5.1396,-5.1492,-5.1493,-5.1495,-5.1443,-5.144,-5.1437,-5.1434,-5.153,-5.1536,-5.1542,0,0,0,0,0,0,0,0,0,0,0,0,0,-5.1256,-5.1161,-5.1393,-5.1382,-5.1382,-5.1492,-5.1493,-5.1495,-5.1444,-5.144,-5.1436,-5.1432,-5.1528,-5.1535,-5.1542,-5.1668,0,0,-5.1565,-5.1569,0,0,0,0,0,0,0,0,-5.1251,-5.1265,-5.1382,-5.1383,-5.1383,-5.1451,-5.1444,-5.1553,-5.1445,-5.142,-5.1435,-5.143,-5.1508,-5.1516,-5.1543,-5.1672,-5.1676,-5.1566,-5.1571,-5.1574,-5.1576,0,0,0,0,0,0,0,-5.1244,-5.126,-5.1432,-5.1384,-5.1385,-5.137,-5.138,-5.1465,-5.1485,-5.1422,-5.1419,-5.1431,-5.1507,-5.1536,-5.1545,-5.1678,-5.1566,-5.1573,-5.1577,-5.158,-5.191,-5.1915,0,0,0,0,0,0,-5.1238,-5.1255,-5.1429,-5.1435,-5.1306,-5.1377,-5.1389,-5.1433,-5.1484,-5.1488,-5.1434,-5.1428,-5.1525,-5.1537,-5.1548,-5.1696,-5.1574,-5.1581,-5.1585,-5.1906,-5.1911,-5.1916,0,0,0,0,0,0,-5.1233,-5.1254,-5.1425,-5.1344,-5.1365,-5.1386,-5.1436,-5.1437,-5.1467,-5.1493,-5.1496,-5.1461,-5.1523,-5.1538,-5.1638,-5.1699,-5.1584,-5.1591,-5.1901,-5.1908,-5.1914,-5.1994,0,0,0,0,0,0,-5.1226,-5.1253,-5.1302,-5.1346,-5.137,-5.1515,-5.144,-5.1442,-5.148,-5.1473,-5.1519,-5.1523,-5.1521,-5.1627,-5.1645,-5.1707,-5.1597,-5.1896,-5.1904,-5.1912,-5.1986,-5.2003,-5.2017,0,0,0,0,0,-5.1218,-5.132,-5.1305,-5.1326,-5.1432,-5.1519,-5.1532,-5.153,-5.1486,-5.1534,-5.155,-5.1521,-5.169,-5.1638,-5.1658,-5.1723,-5.1892,-5.1902,-5.1911,-5.1979,-5.1999,-5.2016,0,0,0,0,0,0,-5.1282,-5.1326,-5.1309,-5.1429,-5.1471,-5.151,-5.1572,-5.1551,-5.1605,-5.1596,-5.1589,-5.16,-5.1703,-5.1723,-5.1665,-5.1845,-5.1784,-5.1798,-5.1828,-5.1848,-5.1863,-5.1855,-5.1603,0,0,0,0,0,-5.131,-5.1379,-5.1413,-5.1515,-5.1537,-5.1551,-5.1589,-5.1583,-5.1625,-5.1642,-5.1666,-5.1707,-5.1768,-5.1809,-5.1868,-5.1989,-5.1996,-5.2043,-5.2058,-5.2071,-5.2083,-5.2145,-5.2166,-5.1948,-5.1947,-5.1947,0,0,-5.1369,-5.1402,-5.1445,-5.1529,-5.1561,-5.163,-5.1566,-5.1643,-5.1693,-5.1653,-5.1749,-5.1768,-5.1812,-5.1923,-5.1973,-5.1943,-5.2145,-5.2083,-5.2093,-5.2098,-5.2157,-5.2178,-5.2196,-5.1954,-5.1953,-5.1952,0,0,-5.1511,-5.1544,-5.1632,-5.1664,-5.1713,-5.1721,-5.1742,-5.1785,-5.1796,-5.1892,-5.1863,-5.1922,-5.2029,-5.2062,-5.2092,-5.2244,-5.2218,-5.2263,-5.2342,-5.2404,-5.2421,-5.2436,-5.2488,-5.2507,-5.2275,-5.2276,-5.2276,0,-5.1577,-5.1682,-5.1679,-5.1757,-5.1794,-5.1762,-5.1849,-5.1881,-5.1946,-5.197,-5.1936,-5.2069,-5.2097,-5.2213,-5.225,-5.2276,-5.2298,-5.2258,-5.2419,-5.2434,-5.2448,-5.2498,-5.2518,-5.2281,-5.228,-5.2279,-5.2279,0,-5.176,-5.1833,-5.1898,-5.1962,-5.2006,-5.2088,-5.2095,-5.214,-5.2129,-5.214,-5.2237,-5.2269,-5.2333,-5.236,-5.2351,-5.2475,-5.2454,-5.242,-5.2357,-5.2474,-5.252,-5.2539,-5.2288,-5.2286,-5.2284,-5.2283,0,0,-5.1946,-5.2007,-5.203,-5.2058,-5.2109,-5.2164,-5.2243,-5.2306,-5.2343,-5.2389,-5.2454,-5.2544,-5.2512,-5.2547,-5.2541,-5.2595,-5.271,-5.2553,-5.2554,-5.2579,-5.2845,-5.287,-5.2892,-5.2693,-5.2697,-5.27,-5.2841,0,-5.209,-5.2231,-5.2229,-5.2359,-5.2425,-5.2394,-5.2463,-5.25,-5.2512,-5.2568,-5.258,-5.2644,-5.2598,-5.2618,-5.2671,-5.2685,-5.2763,-5.2675,-5.2751,-5.2754,-5.274,-5.2917,-5.2943,-5.3075,-5.2859,-5.2862,-5.2864,0,-5.2277,-5.2329,-5.2466,-5.2505,-5.2532,-5.2595,-5.2651,-5.2705,-5.2746,-5.275,-5.2788,-5.2773,-5.2851,-5.2788,-5.2894,-5.2834,-5.2865,-5.2876,-5.2881,-5.2887,-5.2815,-5.2925,-5.3117,-5.3136,-5.2893,-5.2891,-5.2889,0,-5.2396,-5.2501,-5.2595,-5.262,-5.2669,-5.2712,-5.2734,-5.2771,-5.2808,-5.2857,-5.288,-5.2937,-5.2968,-5.3011,-5.301,-5.2964,-5.3117,-5.3054,-5.3121,-5.3121,-5.3153,-5.3151,-5.3351,-5.3176,-5.3176,-5.3175,-5.3175,0,-5.2556,-5.2641,-5.2649,-5.2707,-5.2799,-5.2795,-5.2886,-5.2904,-5.2936,-5.2995,-5.2972,-5.3028,-5.3024,-5.308,-5.308,-5.3166,-5.3181,-5.3185,-5.3183,-5.3186,-5.3185,-5.3205,-5.3195,-5.3181,-5.3179,-5.3178,-5.3178,0,-5.2705,-5.2715,-5.2815,-5.2853,-5.2864,-5.293,-5.2961,-5.3015,-5.3024,-5.3099,-5.3116,-5.313,-5.3194,-5.3198,-5.3272,-5.3271,-5.3376,-5.3365,-5.3362,-5.336,-5.3426,-5.3419,-5.3644,-5.3672,-5.3481,-5.3483,-5.3484,0,-5.2806,-5.287,-5.2914,-5.2953,-5.2977,-5.304,-5.3077,-5.3075,-5.3115,-5.3165,-5.3212,-5.3274,-5.3323,-5.3426,-5.3441,-5.3497,-5.3486,-5.3561,-5.3494,-5.3494,-5.3485,-5.3481,-5.3486,-5.3574,-5.3576,-5.3578,-5.3579,0,-5.2983,-5.2984,-5.3041,-5.3098,-5.3144,-5.3189,-5.3231,-5.3263,-5.3265,-5.331,-5.3376,-5.3414,-5.3489,-5.355,-5.3604,-5.3623,-5.3601,-5.36,-5.3618,-5.3621,-5.3616,-5.3617,-5.3396,-5.3595,-5.3593,-5.3592,-5.3591,-5.3591,-5.311,-5.3165,-5.3204,-5.3266,-5.3297,-5.3337,-5.3388,-5.3404,-5.3459,-5.3521,-5.3515,-5.3587,-5.3623,-5.3693,-5.3718,-5.3772,-5.3746,-5.3773,-5.3779,-5.3786,-5.3792,-5.3609,-5.3782,-5.3782,-5.3781,-5.3781,-5.3781,0,-5.3284,-5.3308,-5.3366,-5.3425,-5.3473,-5.3449,-5.3494,-5.3535,-5.3599,-5.3636,-5.3684,-5.3758,-5.3816,-5.3836,-5.3892,-5.3932,-5.3923,-5.3947,-5.3943,-5.3947,-5.3813,-5.3791,-5.3953,-5.3953,-5.3953,-5.3953,-5.3953,-5.3953,-5.3381,-5.3471,-5.3477,-5.3581,-5.3603,-5.3674,-5.3701,-5.3736,-5.3765,-5.3849,-5.3898,-5.391,-5.3939,-5.3997,-5.4048,-5.4052,-5.4073,-5.4101,-5.41,-5.3974,-5.3957,-5.394,-5.3919,-5.4106,-5.4106,-5.423,-5.4231,-5.4232]}]]